Year,Month,Day,Hour,Minute,Value (Times are PST for temperature in C)
2012,06,24,00,00,19.80
2012,06,24,00,01,19.80
2012,06,24,00,02,19.70
2012,06,24,00,03,19.70
2012,06,24,00,04,19.70
2012,06,24,00,05,19.60
2012,06,24,00,06,19.60
2012,06,24,00,07,19.50
2012,06,24,00,08,19.40
2012,06,24,00,09,19.40
2012,06,24,00,10,19.30
2012,06,24,00,11,19.30
2012,06,24,00,12,19.30
2012,06,24,00,13,19.30
2012,06,24,00,14,19.30
2012,06,24,00,15,19.30
2012,06,24,00,16,19.20
2012,06,24,00,17,19.20
2012,06,24,00,18,19.20
2012,06,24,00,19,19.10
2012,06,24,00,20,19.10
2012,06,24,00,21,19.10
2012,06,24,00,22,19.00
2012,06,24,00,23,19.00
2012,06,24,00,24,18.90
2012,06,24,00,25,18.90
2012,06,24,00,26,18.90
2012,06,24,00,27,18.90
2012,06,24,00,28,18.90
2012,06,24,00,29,18.90
2012,06,24,00,30,18.90
2012,06,24,00,31,18.90
2012,06,24,00,32,18.80
2012,06,24,00,33,18.80
2012,06,24,00,34,18.80
2012,06,24,00,35,18.80
2012,06,24,00,36,18.80
2012,06,24,00,37,18.80
2012,06,24,00,38,18.80
2012,06,24,00,39,18.80
2012,06,24,00,40,18.80
2012,06,24,00,41,18.80
2012,06,24,00,42,18.80
2012,06,24,00,43,18.80
2012,06,24,00,44,18.80
2012,06,24,00,45,18.80
2012,06,24,00,46,18.80
2012,06,24,00,47,18.80
2012,06,24,00,48,18.80
2012,06,24,00,49,18.80
2012,06,24,00,50,18.90
2012,06,24,00,51,18.90
2012,06,24,00,52,18.90
2012,06,24,00,53,18.90
2012,06,24,00,54,18.90
2012,06,24,00,55,18.90
2012,06,24,00,56,18.90
2012,06,24,00,57,18.90
2012,06,24,00,58,18.90
2012,06,24,00,59,18.80
2012,06,24,01,00,18.80
2012,06,24,01,01,18.80
2012,06,24,01,02,18.80
2012,06,24,01,03,18.70
2012,06,24,01,04,18.70
2012,06,24,01,05,18.70
2012,06,24,01,06,18.70
2012,06,24,01,07,18.60
2012,06,24,01,08,18.60
2012,06,24,01,09,18.60
2012,06,24,01,10,18.50
2012,06,24,01,11,18.50
2012,06,24,01,12,18.40
2012,06,24,01,13,18.40
2012,06,24,01,14,18.40
2012,06,24,01,15,18.30
2012,06,24,01,16,18.20
2012,06,24,01,17,18.20
2012,06,24,01,18,18.10
2012,06,24,01,19,18.10
2012,06,24,01,20,18.00
2012,06,24,01,21,18.00
2012,06,24,01,22,17.90
2012,06,24,01,23,17.80
2012,06,24,01,24,17.80
2012,06,24,01,25,17.80
2012,06,24,01,26,17.80
2012,06,24,01,27,17.70
2012,06,24,01,28,17.70
2012,06,24,01,29,17.60
2012,06,24,01,30,17.60
2012,06,24,01,31,17.60
2012,06,24,01,32,17.50
2012,06,24,01,33,17.50
2012,06,24,01,34,17.40
2012,06,24,01,35,17.40
2012,06,24,01,36,17.40
2012,06,24,01,37,17.40
2012,06,24,01,38,17.40
2012,06,24,01,39,17.40
2012,06,24,01,40,17.30
2012,06,24,01,41,17.30
2012,06,24,01,42,17.30
2012,06,24,01,43,17.30
2012,06,24,01,44,17.30
2012,06,24,01,45,17.30
2012,06,24,01,46,17.30
2012,06,24,01,47,17.30
2012,06,24,01,48,17.30
2012,06,24,01,49,17.30
2012,06,24,01,50,17.30
2012,06,24,01,51,17.30
2012,06,24,01,52,17.30
2012,06,24,01,53,17.30
2012,06,24,01,54,17.20
2012,06,24,01,55,17.20
2012,06,24,01,56,17.20
2012,06,24,01,57,17.20
2012,06,24,01,58,17.20
2012,06,24,01,59,17.20
2012,06,24,02,00,17.10
2012,06,24,02,01,17.10
2012,06,24,02,02,17.10
2012,06,24,02,03,17.10
2012,06,24,02,04,17.10
2012,06,24,02,05,17.00
2012,06,24,02,06,17.00
2012,06,24,02,07,17.00
2012,06,24,02,08,16.90
2012,06,24,02,09,16.90
2012,06,24,02,10,16.90
2012,06,24,02,11,16.80
2012,06,24,02,12,16.80
2012,06,24,02,13,16.80
2012,06,24,02,14,16.70
2012,06,24,02,15,16.70
2012,06,24,02,16,16.70
2012,06,24,02,17,16.60
2012,06,24,02,18,16.50
2012,06,24,02,19,16.50
2012,06,24,02,20,16.40
2012,06,24,02,21,16.40
2012,06,24,02,22,16.30
2012,06,24,02,23,16.30
2012,06,24,02,24,16.20
2012,06,24,02,25,16.20
2012,06,24,02,26,16.20
2012,06,24,02,27,16.10
2012,06,24,02,28,16.10
2012,06,24,02,29,16.10
2012,06,24,02,30,16.00
2012,06,24,02,31,16.00
2012,06,24,02,32,15.90
2012,06,24,02,33,15.90
2012,06,24,02,34,15.80
2012,06,24,02,35,15.80
2012,06,24,02,36,15.70
2012,06,24,02,37,15.70
2012,06,24,02,38,15.70
2012,06,24,02,39,15.70
2012,06,24,02,40,15.70
2012,06,24,02,41,15.70
2012,06,24,02,42,15.70
2012,06,24,02,43,15.70
2012,06,24,02,44,15.70
2012,06,24,02,45,15.60
2012,06,24,02,46,15.60
2012,06,24,02,47,15.60
2012,06,24,02,48,15.60
2012,06,24,02,49,15.60
2012,06,24,02,50,15.50
2012,06,24,02,51,15.50
2012,06,24,02,52,15.40
2012,06,24,02,53,15.40
2012,06,24,02,54,15.40
2012,06,24,02,55,15.40
2012,06,24,02,56,15.30
2012,06,24,02,57,15.30
2012,06,24,02,58,15.30
2012,06,24,02,59,15.30
2012,06,24,03,00,15.20
2012,06,24,03,01,15.20
2012,06,24,03,02,15.20
2012,06,24,03,03,15.10
2012,06,24,03,04,15.10
2012,06,24,03,05,15.00
2012,06,24,03,06,15.00
2012,06,24,03,07,14.90
2012,06,24,03,08,14.90
2012,06,24,03,09,14.80
2012,06,24,03,10,14.80
2012,06,24,03,11,14.80
2012,06,24,03,12,14.70
2012,06,24,03,13,14.70
2012,06,24,03,14,14.70
2012,06,24,03,15,14.70
2012,06,24,03,16,14.70
2012,06,24,03,17,14.60
2012,06,24,03,18,14.60
2012,06,24,03,19,14.60
2012,06,24,03,20,14.50
2012,06,24,03,21,14.50
2012,06,24,03,22,14.40
2012,06,24,03,23,14.40
2012,06,24,03,24,14.30
2012,06,24,03,25,14.30
2012,06,24,03,26,14.30
2012,06,24,03,27,14.20
2012,06,24,03,28,14.20
2012,06,24,03,29,14.20
2012,06,24,03,30,14.10
2012,06,24,03,31,14.10
2012,06,24,03,32,14.10
2012,06,24,03,33,14.10
2012,06,24,03,34,14.10
2012,06,24,03,35,14.10
2012,06,24,03,36,14.00
2012,06,24,03,37,14.00
2012,06,24,03,38,14.00
2012,06,24,03,39,14.00
2012,06,24,03,40,13.90
2012,06,24,03,41,13.90
2012,06,24,03,42,13.90
2012,06,24,03,43,13.90
2012,06,24,03,44,13.80
2012,06,24,03,45,13.80
2012,06,24,03,46,13.80
2012,06,24,03,47,13.70
2012,06,24,03,48,13.70
2012,06,24,03,49,13.60
2012,06,24,03,50,13.60
2012,06,24,03,51,13.60
2012,06,24,03,52,13.50
2012,06,24,03,53,13.50
2012,06,24,03,54,13.50
2012,06,24,03,55,13.40
2012,06,24,03,56,13.40
2012,06,24,03,57,13.40
2012,06,24,03,58,13.40
2012,06,24,03,59,13.40
2012,06,24,04,00,13.40
2012,06,24,04,01,13.30
2012,06,24,04,02,13.30
2012,06,24,04,03,13.30
2012,06,24,04,04,13.30
2012,06,24,04,05,13.20
2012,06,24,04,06,13.20
2012,06,24,04,07,13.20
2012,06,24,04,08,13.20
2012,06,24,04,09,13.20
2012,06,24,04,10,13.10
2012,06,24,04,11,13.10
2012,06,24,04,12,13.10
2012,06,24,04,13,13.10
2012,06,24,04,14,13.10
2012,06,24,04,15,13.00
2012,06,24,04,16,13.00
2012,06,24,04,17,12.90
2012,06,24,04,18,12.90
2012,06,24,04,19,12.90
2012,06,24,04,20,12.90
2012,06,24,04,21,12.90
2012,06,24,04,22,12.80
2012,06,24,04,23,12.80
2012,06,24,04,24,12.80
2012,06,24,04,25,12.80
2012,06,24,04,26,12.80
2012,06,24,04,27,12.80
2012,06,24,04,28,12.70
2012,06,24,04,29,12.70
2012,06,24,04,30,12.70
2012,06,24,04,31,12.70
2012,06,24,04,32,12.70
2012,06,24,04,33,12.70
2012,06,24,04,34,12.60
2012,06,24,04,35,12.60
2012,06,24,04,36,12.60
2012,06,24,04,37,12.60
2012,06,24,04,38,12.60
2012,06,24,04,39,12.50
2012,06,24,04,40,12.50
2012,06,24,04,41,12.50
2012,06,24,04,42,12.50
2012,06,24,04,43,12.40
2012,06,24,04,44,12.40
2012,06,24,04,45,12.40
2012,06,24,04,46,12.40
2012,06,24,04,47,12.40
2012,06,24,04,48,12.40
2012,06,24,04,49,12.30
2012,06,24,04,50,12.30
2012,06,24,04,51,12.30
2012,06,24,04,52,12.30
2012,06,24,04,53,12.30
2012,06,24,04,54,12.30
2012,06,24,04,55,12.30
2012,06,24,04,56,12.30
2012,06,24,04,57,12.30
2012,06,24,04,58,12.30
2012,06,24,04,59,12.30
2012,06,24,05,00,12.30
2012,06,24,05,01,12.30
2012,06,24,05,02,12.30
2012,06,24,05,03,12.30
2012,06,24,05,04,12.30
2012,06,24,05,05,12.20
2012,06,24,05,06,12.20
2012,06,24,05,07,12.20
2012,06,24,05,08,12.20
2012,06,24,05,09,12.20
2012,06,24,05,10,12.20
2012,06,24,05,11,12.20
2012,06,24,05,12,12.10
2012,06,24,05,13,12.10
2012,06,24,05,14,12.10
2012,06,24,05,15,12.10
2012,06,24,05,16,12.10
2012,06,24,05,17,12.00
2012,06,24,05,18,12.00
2012,06,24,05,19,12.00
2012,06,24,05,20,12.00
2012,06,24,05,21,11.90
2012,06,24,05,22,11.90
2012,06,24,05,23,11.90
2012,06,24,05,24,11.90
2012,06,24,05,25,11.90
2012,06,24,05,26,11.90
2012,06,24,05,27,11.90
2012,06,24,05,28,11.90
2012,06,24,05,29,11.90
2012,06,24,05,30,11.90
2012,06,24,05,31,11.90
2012,06,24,05,32,11.90
2012,06,24,05,33,11.80
2012,06,24,05,34,11.80
2012,06,24,05,35,11.80
2012,06,24,05,36,11.80
2012,06,24,05,37,11.80
2012,06,24,05,38,11.80
2012,06,24,05,39,11.80
2012,06,24,05,40,11.80
2012,06,24,05,41,11.80
2012,06,24,05,42,11.70
2012,06,24,05,43,11.70
2012,06,24,05,44,11.70
2012,06,24,05,45,11.70
2012,06,24,05,46,11.70
2012,06,24,05,47,11.70
2012,06,24,05,48,11.70
2012,06,24,05,49,11.70
2012,06,24,05,50,11.70
2012,06,24,05,51,11.70
2012,06,24,05,52,11.70
2012,06,24,05,53,11.60
2012,06,24,05,54,11.60
2012,06,24,05,55,11.60
2012,06,24,05,56,11.60
2012,06,24,05,57,11.60
2012,06,24,05,58,11.60
2012,06,24,05,59,11.50
2012,06,24,06,00,11.50
2012,06,24,06,01,11.50
2012,06,24,06,02,11.50
2012,06,24,06,03,11.50
2012,06,24,06,04,11.50
2012,06,24,06,05,11.50
2012,06,24,06,06,11.50
2012,06,24,06,07,11.50
2012,06,24,06,08,11.50
2012,06,24,06,09,11.50
2012,06,24,06,10,11.50
2012,06,24,06,11,11.50
2012,06,24,06,12,11.50
2012,06,24,06,13,11.50
2012,06,24,06,14,11.50
2012,06,24,06,15,11.50
2012,06,24,06,16,11.50
2012,06,24,06,17,11.40
2012,06,24,06,18,11.40
2012,06,24,06,19,11.40
2012,06,24,06,20,11.40
2012,06,24,06,21,11.40
2012,06,24,06,22,11.40
2012,06,24,06,23,11.40
2012,06,24,06,24,11.40
2012,06,24,06,25,11.40
2012,06,24,06,26,11.40
2012,06,24,06,27,11.40
2012,06,24,06,28,11.50
2012,06,24,06,29,11.50
2012,06,24,06,30,11.50
2012,06,24,06,31,11.50
2012,06,24,06,32,11.50
2012,06,24,06,33,11.50
2012,06,24,06,34,11.50
2012,06,24,06,35,11.50
2012,06,24,06,36,11.50
2012,06,24,06,37,11.50
2012,06,24,06,38,11.50
2012,06,24,06,39,11.50
2012,06,24,06,40,11.50
2012,06,24,06,41,11.50
2012,06,24,06,42,11.50
2012,06,24,06,43,11.50
2012,06,24,06,44,11.50
2012,06,24,06,45,11.50
2012,06,24,06,46,11.50
2012,06,24,06,47,11.60
2012,06,24,06,48,11.60
2012,06,24,06,49,11.60
2012,06,24,06,50,11.60
2012,06,24,06,51,11.60
2012,06,24,06,52,11.60
2012,06,24,06,53,11.60
2012,06,24,06,54,11.50
2012,06,24,06,55,11.50
2012,06,24,06,56,11.50
2012,06,24,06,57,11.50
2012,06,24,06,58,11.50
2012,06,24,06,59,11.50
2012,06,24,07,00,11.50
2012,06,24,07,01,11.50
2012,06,24,07,02,11.50
2012,06,24,07,03,11.50
2012,06,24,07,04,11.50
2012,06,24,07,05,11.50
2012,06,24,07,06,11.50
2012,06,24,07,07,11.50
2012,06,24,07,08,11.50
2012,06,24,07,09,11.50
2012,06,24,07,10,11.50
2012,06,24,07,11,11.50
2012,06,24,07,12,11.50
2012,06,24,07,13,11.50
2012,06,24,07,14,11.50
2012,06,24,07,15,11.50
2012,06,24,07,16,11.50
2012,06,24,07,17,11.50
2012,06,24,07,18,11.50
2012,06,24,07,19,11.50
2012,06,24,07,20,11.50
2012,06,24,07,21,11.60
2012,06,24,07,22,11.60
2012,06,24,07,23,11.60
2012,06,24,07,24,11.60
2012,06,24,07,25,11.60
2012,06,24,07,26,11.60
2012,06,24,07,27,11.60
2012,06,24,07,28,11.60
2012,06,24,07,29,11.60
2012,06,24,07,30,11.60
2012,06,24,07,31,11.60
2012,06,24,07,32,11.60
2012,06,24,07,33,11.60
2012,06,24,07,34,11.60
2012,06,24,07,35,11.60
2012,06,24,07,36,11.60
2012,06,24,07,37,11.60
2012,06,24,07,38,11.60
2012,06,24,07,39,11.60
2012,06,24,07,40,11.60
2012,06,24,07,41,11.60
2012,06,24,07,42,11.70
2012,06,24,07,43,11.70
2012,06,24,07,44,11.80
2012,06,24,07,45,11.90
2012,06,24,07,46,11.90
2012,06,24,07,47,12.00
2012,06,24,07,48,12.10
2012,06,24,07,49,12.20
2012,06,24,07,50,12.30
2012,06,24,07,51,12.40
2012,06,24,07,52,12.50
2012,06,24,07,53,12.60
2012,06,24,07,54,12.70
2012,06,24,07,55,12.80
2012,06,24,07,56,12.90
2012,06,24,07,57,13.00
2012,06,24,07,58,13.10
2012,06,24,07,59,13.20
2012,06,24,08,00,13.30
2012,06,24,08,01,13.40
2012,06,24,08,02,13.50
2012,06,24,08,03,13.60
2012,06,24,08,04,13.70
2012,06,24,08,05,13.80
2012,06,24,08,06,13.80
2012,06,24,08,07,13.90
2012,06,24,08,08,14.00
2012,06,24,08,09,14.10
2012,06,24,08,10,14.10
2012,06,24,08,11,14.20
2012,06,24,08,12,14.20
2012,06,24,08,13,14.30
2012,06,24,08,14,14.30
2012,06,24,08,15,14.40
2012,06,24,08,16,14.40
2012,06,24,08,17,14.50
2012,06,24,08,18,14.60
2012,06,24,08,19,14.60
2012,06,24,08,20,14.70
2012,06,24,08,21,14.70
2012,06,24,08,22,14.80
2012,06,24,08,23,14.80
2012,06,24,08,24,14.90
2012,06,24,08,25,14.90
2012,06,24,08,26,14.90
2012,06,24,08,27,14.90
2012,06,24,08,28,14.90
2012,06,24,08,29,15.00
2012,06,24,08,30,15.00
2012,06,24,08,31,15.10
2012,06,24,08,32,15.10
2012,06,24,08,33,15.10
2012,06,24,08,34,15.10
2012,06,24,08,35,15.20
2012,06,24,08,36,15.20
2012,06,24,08,37,15.30
2012,06,24,08,38,15.30
2012,06,24,08,39,15.40
2012,06,24,08,40,15.40
2012,06,24,08,41,15.50
2012,06,24,08,42,15.60
2012,06,24,08,43,15.60
2012,06,24,08,44,15.60
2012,06,24,08,45,15.70
2012,06,24,08,46,15.70
2012,06,24,08,47,15.80
2012,06,24,08,48,15.80
2012,06,24,08,49,15.90
2012,06,24,08,50,15.90
2012,06,24,08,51,16.00
2012,06,24,08,52,16.00
2012,06,24,08,53,16.10
2012,06,24,08,54,16.10
2012,06,24,08,55,16.20
2012,06,24,08,56,16.30
2012,06,24,08,57,16.40
2012,06,24,08,58,16.40
2012,06,24,08,59,16.40
2012,06,24,09,00,16.40
2012,06,24,09,01,16.50
2012,06,24,09,02,16.40
2012,06,24,09,03,16.40
2012,06,24,09,04,16.50
2012,06,24,09,05,16.50
2012,06,24,09,06,16.60
2012,06,24,09,07,16.60
2012,06,24,09,08,16.60
2012,06,24,09,09,16.60
2012,06,24,09,10,16.60
2012,06,24,09,11,16.60
2012,06,24,09,12,16.60
2012,06,24,09,13,16.70
2012,06,24,09,14,16.70
2012,06,24,09,15,16.70
2012,06,24,09,16,16.70
2012,06,24,09,17,16.70
2012,06,24,09,18,16.80
2012,06,24,09,19,16.80
2012,06,24,09,20,16.90
2012,06,24,09,21,16.90
2012,06,24,09,22,16.90
2012,06,24,09,23,17.00
2012,06,24,09,24,17.00
2012,06,24,09,25,17.00
2012,06,24,09,26,17.10
2012,06,24,09,27,17.10
2012,06,24,09,28,17.20
2012,06,24,09,29,17.20
2012,06,24,09,30,17.30
2012,06,24,09,31,17.40
2012,06,24,09,32,17.40
2012,06,24,09,33,17.50
2012,06,24,09,34,17.50
2012,06,24,09,35,17.50
2012,06,24,09,36,17.60
2012,06,24,09,37,17.60
2012,06,24,09,38,17.70
2012,06,24,09,39,17.70
2012,06,24,09,40,17.80
2012,06,24,09,41,17.80
2012,06,24,09,42,17.90
2012,06,24,09,43,18.00
2012,06,24,09,44,18.00
2012,06,24,09,45,18.10
2012,06,24,09,46,18.20
2012,06,24,09,47,18.20
2012,06,24,09,48,18.30
2012,06,24,09,49,18.40
2012,06,24,09,50,18.50
2012,06,24,09,51,18.60
2012,06,24,09,52,18.60
2012,06,24,09,53,18.60
2012,06,24,09,54,18.70
2012,06,24,09,55,18.70
2012,06,24,09,56,18.80
2012,06,24,09,57,18.90
2012,06,24,09,58,19.00
2012,06,24,09,59,19.10
2012,06,24,10,00,19.20
2012,06,24,10,01,19.30
2012,06,24,10,02,19.30
2012,06,24,10,03,19.40
2012,06,24,10,04,19.50
2012,06,24,10,05,19.50
2012,06,24,10,06,19.60
2012,06,24,10,07,19.60
2012,06,24,10,08,19.60
2012,06,24,10,09,19.70
2012,06,24,10,10,19.70
2012,06,24,10,11,19.70
2012,06,24,10,12,19.80
2012,06,24,10,13,19.80
2012,06,24,10,14,19.90
2012,06,24,10,15,19.90
2012,06,24,10,16,20.00
2012,06,24,10,17,20.10
2012,06,24,10,18,20.20
2012,06,24,10,19,20.30
2012,06,24,10,20,20.30
2012,06,24,10,21,20.30
2012,06,24,10,22,20.40
2012,06,24,10,23,20.40
2012,06,24,10,24,20.40
2012,06,24,10,25,20.40
2012,06,24,10,26,20.40
2012,06,24,10,27,20.40
2012,06,24,10,28,20.50
2012,06,24,10,29,20.50
2012,06,24,10,30,20.60
2012,06,24,10,31,20.60
2012,06,24,10,32,20.50
2012,06,24,10,33,20.50
2012,06,24,10,34,20.50
2012,06,24,10,35,20.60
2012,06,24,10,36,20.60
2012,06,24,10,37,20.60
2012,06,24,10,38,20.70
2012,06,24,10,39,20.70
2012,06,24,10,40,20.80
2012,06,24,10,41,20.80
2012,06,24,10,42,20.90
2012,06,24,10,43,21.00
2012,06,24,10,44,21.10
2012,06,24,10,45,21.10
2012,06,24,10,46,21.20
2012,06,24,10,47,21.20
2012,06,24,10,48,21.30
2012,06,24,10,49,21.30
2012,06,24,10,50,21.40
2012,06,24,10,51,21.50
2012,06,24,10,52,21.50
2012,06,24,10,53,21.60
2012,06,24,10,54,21.70
2012,06,24,10,55,21.70
2012,06,24,10,56,21.70
2012,06,24,10,57,21.70
2012,06,24,10,58,21.60
2012,06,24,10,59,21.60
2012,06,24,11,00,21.60
2012,06,24,11,01,21.60
2012,06,24,11,02,21.70
2012,06,24,11,03,21.70
2012,06,24,11,04,21.70
2012,06,24,11,05,21.70
2012,06,24,11,06,21.70
2012,06,24,11,07,21.70
2012,06,24,11,08,21.70
2012,06,24,11,09,21.70
2012,06,24,11,10,21.80
2012,06,24,11,11,21.80
2012,06,24,11,12,21.80
2012,06,24,11,13,21.90
2012,06,24,11,14,22.00
2012,06,24,11,15,22.10
2012,06,24,11,16,22.10
2012,06,24,11,17,22.20
2012,06,24,11,18,22.20
2012,06,24,11,19,22.20
2012,06,24,11,20,22.20
2012,06,24,11,21,22.20
2012,06,24,11,22,22.20
2012,06,24,11,23,22.20
2012,06,24,11,24,22.20
2012,06,24,11,25,22.20
2012,06,24,11,26,22.20
2012,06,24,11,27,22.30
2012,06,24,11,28,22.30
2012,06,24,11,29,22.30
2012,06,24,11,30,22.30
2012,06,24,11,31,22.40
2012,06,24,11,32,22.50
2012,06,24,11,33,22.60
2012,06,24,11,34,22.70
2012,06,24,11,35,22.80
2012,06,24,11,36,22.90
2012,06,24,11,37,23.00
2012,06,24,11,38,23.00
2012,06,24,11,39,23.10
2012,06,24,11,40,23.10
2012,06,24,11,41,23.00
2012,06,24,11,42,23.00
2012,06,24,11,43,23.00
2012,06,24,11,44,22.90
2012,06,24,11,45,22.90
2012,06,24,11,46,22.80
2012,06,24,11,47,22.80
2012,06,24,11,48,22.80
2012,06,24,11,49,22.90
2012,06,24,11,50,23.00
2012,06,24,11,51,23.00
2012,06,24,11,52,23.10
2012,06,24,11,53,23.20
2012,06,24,11,54,23.20
2012,06,24,11,55,23.30
2012,06,24,11,56,23.40
2012,06,24,11,57,23.50
2012,06,24,11,58,23.60
2012,06,24,11,59,23.60
2012,06,24,12,00,23.70
2012,06,24,12,01,23.80
2012,06,24,12,02,23.80
2012,06,24,12,03,23.90
2012,06,24,12,04,24.00
2012,06,24,12,05,24.10
2012,06,24,12,06,24.10
2012,06,24,12,07,24.10
2012,06,24,12,08,24.20
2012,06,24,12,09,24.20
2012,06,24,12,10,24.20
2012,06,24,12,11,24.20
2012,06,24,12,12,24.20
2012,06,24,12,13,24.20
2012,06,24,12,14,24.20
2012,06,24,12,15,24.20
2012,06,24,12,16,24.30
2012,06,24,12,17,24.30
2012,06,24,12,18,24.40
2012,06,24,12,19,24.50
2012,06,24,12,20,24.60
2012,06,24,12,21,24.70
2012,06,24,12,22,24.80
2012,06,24,12,23,25.00
2012,06,24,12,24,25.10
2012,06,24,12,25,25.20
2012,06,24,12,26,25.30
2012,06,24,12,27,25.40
2012,06,24,12,28,25.50
2012,06,24,12,29,25.50
2012,06,24,12,30,25.70
2012,06,24,12,31,25.80
2012,06,24,12,32,25.90
2012,06,24,12,33,26.00
2012,06,24,12,34,26.10
2012,06,24,12,35,26.20
2012,06,24,12,36,26.20
2012,06,24,12,37,26.30
2012,06,24,12,38,26.30
2012,06,24,12,39,26.40
2012,06,24,12,40,26.50
2012,06,24,12,41,26.60
2012,06,24,12,42,26.70
2012,06,24,12,43,26.80
2012,06,24,12,44,26.80
2012,06,24,12,45,26.80
2012,06,24,12,46,26.70
2012,06,24,12,47,26.70
2012,06,24,12,48,26.60
2012,06,24,12,49,26.60
2012,06,24,12,50,26.50
2012,06,24,12,51,26.50
2012,06,24,12,52,26.50
2012,06,24,12,53,26.60
2012,06,24,12,54,26.60
2012,06,24,12,55,26.70
2012,06,24,12,56,26.80
2012,06,24,12,57,26.90
2012,06,24,12,58,27.00
2012,06,24,12,59,27.10
2012,06,24,13,00,27.20
2012,06,24,13,01,27.20
2012,06,24,13,02,27.30
2012,06,24,13,03,27.40
2012,06,24,13,04,27.50
2012,06,24,13,05,27.60
2012,06,24,13,06,27.70
2012,06,24,13,07,27.70
2012,06,24,13,08,27.80
2012,06,24,13,09,27.80
2012,06,24,13,10,27.90
2012,06,24,13,11,27.90
2012,06,24,13,12,27.90
2012,06,24,13,13,28.00
2012,06,24,13,14,28.00
2012,06,24,13,15,28.10
2012,06,24,13,16,28.10
2012,06,24,13,17,28.10
2012,06,24,13,18,28.10
2012,06,24,13,19,28.10
2012,06,24,13,20,28.10
2012,06,24,13,21,28.10
2012,06,24,13,22,28.20
2012,06,24,13,23,28.20
2012,06,24,13,24,28.20
2012,06,24,13,25,28.10
2012,06,24,13,26,28.00
2012,06,24,13,27,27.80
2012,06,24,13,28,27.70
2012,06,24,13,29,27.60
2012,06,24,13,30,27.60
2012,06,24,13,31,27.60
2012,06,24,13,32,27.60
2012,06,24,13,33,27.70
2012,06,24,13,34,27.70
2012,06,24,13,35,27.70
2012,06,24,13,36,27.70
2012,06,24,13,37,27.70
2012,06,24,13,38,27.70
2012,06,24,13,39,27.70
2012,06,24,13,40,27.70
2012,06,24,13,41,27.80
2012,06,24,13,42,27.80
2012,06,24,13,43,27.90
2012,06,24,13,44,27.90
2012,06,24,13,45,28.00
2012,06,24,13,46,28.10
2012,06,24,13,47,28.10
2012,06,24,13,48,28.20
2012,06,24,13,49,28.30
2012,06,24,13,50,28.30
2012,06,24,13,51,28.30
2012,06,24,13,52,28.30
2012,06,24,13,53,28.30
2012,06,24,13,54,28.40
2012,06,24,13,55,28.40
2012,06,24,13,56,28.40
2012,06,24,13,57,28.40
2012,06,24,13,58,28.40
2012,06,24,13,59,28.40
2012,06,24,14,00,28.40
2012,06,24,14,01,28.40
2012,06,24,14,02,28.50
2012,06,24,14,03,28.50
2012,06,24,14,04,28.60
2012,06,24,14,05,28.60
2012,06,24,14,06,28.70
2012,06,24,14,07,28.70
2012,06,24,14,08,28.80
2012,06,24,14,09,28.90
2012,06,24,14,10,29.00
2012,06,24,14,11,29.10
2012,06,24,14,12,29.10
2012,06,24,14,13,29.10
2012,06,24,14,14,29.20
2012,06,24,14,15,29.30
2012,06,24,14,16,29.30
2012,06,24,14,17,29.40
2012,06,24,14,18,29.40
2012,06,24,14,19,29.50
2012,06,24,14,20,29.60
2012,06,24,14,21,29.60
2012,06,24,14,22,29.70
2012,06,24,14,23,29.60
2012,06,24,14,24,29.50
2012,06,24,14,25,29.50
2012,06,24,14,26,29.50
2012,06,24,14,27,29.40
2012,06,24,14,28,29.40
2012,06,24,14,29,29.40
2012,06,24,14,30,29.50
2012,06,24,14,31,29.50
2012,06,24,14,32,29.50
2012,06,24,14,33,29.50
2012,06,24,14,34,29.50
2012,06,24,14,35,29.50
2012,06,24,14,36,29.60
2012,06,24,14,37,29.50
2012,06,24,14,38,29.50
2012,06,24,14,39,29.40
2012,06,24,14,40,29.40
2012,06,24,14,41,29.40
2012,06,24,14,42,29.40
2012,06,24,14,43,29.50
2012,06,24,14,44,29.50
2012,06,24,14,45,29.60
2012,06,24,14,46,29.70
2012,06,24,14,47,29.80
2012,06,24,14,48,29.80
2012,06,24,14,49,29.90
2012,06,24,14,50,29.90
2012,06,24,14,51,29.90
2012,06,24,14,52,29.80
2012,06,24,14,53,29.80
2012,06,24,14,54,29.80
2012,06,24,14,55,29.70
2012,06,24,14,56,29.50
2012,06,24,14,57,29.50
2012,06,24,14,58,29.40
2012,06,24,14,59,29.40
2012,06,24,15,00,29.30
2012,06,24,15,01,29.30
2012,06,24,15,02,29.30
2012,06,24,15,03,29.30
2012,06,24,15,04,29.30
2012,06,24,15,05,29.30
2012,06,24,15,06,29.30
2012,06,24,15,07,29.40
2012,06,24,15,08,29.40
2012,06,24,15,09,29.30
2012,06,24,15,10,29.20
2012,06,24,15,11,29.00
2012,06,24,15,12,28.90
2012,06,24,15,13,28.90
2012,06,24,15,14,28.90
2012,06,24,15,15,28.80
2012,06,24,15,16,28.80
2012,06,24,15,17,28.70
2012,06,24,15,18,28.70
2012,06,24,15,19,28.60
2012,06,24,15,20,28.60
2012,06,24,15,21,28.60
2012,06,24,15,22,28.60
2012,06,24,15,23,28.60
2012,06,24,15,24,28.60
2012,06,24,15,25,28.60
2012,06,24,15,26,28.50
2012,06,24,15,27,28.40
2012,06,24,15,28,28.30
2012,06,24,15,29,28.30
2012,06,24,15,30,28.20
2012,06,24,15,31,28.20
2012,06,24,15,32,28.20
2012,06,24,15,33,28.10
2012,06,24,15,34,28.10
2012,06,24,15,35,28.10
2012,06,24,15,36,28.00
2012,06,24,15,37,28.00
2012,06,24,15,38,27.90
2012,06,24,15,39,27.90
2012,06,24,15,40,27.90
2012,06,24,15,41,27.90
2012,06,24,15,42,27.90
2012,06,24,15,43,27.80
2012,06,24,15,44,27.80
2012,06,24,15,45,27.80
2012,06,24,15,46,27.80
2012,06,24,15,47,27.80
2012,06,24,15,48,27.80
2012,06,24,15,49,27.80
2012,06,24,15,50,27.80
2012,06,24,15,51,27.80
2012,06,24,15,52,27.80
2012,06,24,15,53,27.80
2012,06,24,15,54,27.80
2012,06,24,15,55,27.80
2012,06,24,15,56,27.90
2012,06,24,15,57,27.90
2012,06,24,15,58,27.90
2012,06,24,15,59,28.00
2012,06,24,16,00,28.00
2012,06,24,16,01,28.10
2012,06,24,16,02,28.20
2012,06,24,16,03,28.20
2012,06,24,16,04,28.10
2012,06,24,16,05,28.10
2012,06,24,16,06,28.10
2012,06,24,16,07,28.10
2012,06,24,16,08,28.10
2012,06,24,16,09,28.20
2012,06,24,16,10,28.30
2012,06,24,16,11,28.40
2012,06,24,16,12,28.40
2012,06,24,16,13,28.60
2012,06,24,16,14,28.60
2012,06,24,16,15,28.70
2012,06,24,16,16,28.70
2012,06,24,16,17,28.80
2012,06,24,16,18,28.80
2012,06,24,16,19,28.80
2012,06,24,16,20,28.70
2012,06,24,16,21,28.70
2012,06,24,16,22,28.70
2012,06,24,16,23,28.70
2012,06,24,16,24,28.60
2012,06,24,16,25,28.60
2012,06,24,16,26,28.60
2012,06,24,16,27,28.60
2012,06,24,16,28,28.60
2012,06,24,16,29,28.70
2012,06,24,16,30,28.70
2012,06,24,16,31,28.70
2012,06,24,16,32,28.70
2012,06,24,16,33,28.60
2012,06,24,16,34,28.60
2012,06,24,16,35,28.50
2012,06,24,16,36,28.40
2012,06,24,16,37,28.40
2012,06,24,16,38,28.40
2012,06,24,16,39,28.30
2012,06,24,16,40,28.30
2012,06,24,16,41,28.20
2012,06,24,16,42,28.20
2012,06,24,16,43,28.10
2012,06,24,16,44,28.10
2012,06,24,16,45,28.10
2012,06,24,16,46,28.00
2012,06,24,16,47,28.00
2012,06,24,16,48,28.10
2012,06,24,16,49,28.10
2012,06,24,16,50,28.10
2012,06,24,16,51,28.10
2012,06,24,16,52,28.10
2012,06,24,16,53,28.10
2012,06,24,16,54,28.10
2012,06,24,16,55,28.10
2012,06,24,16,56,28.10
2012,06,24,16,57,28.10
2012,06,24,16,58,28.10
2012,06,24,16,59,28.10
2012,06,24,17,00,28.10
2012,06,24,17,01,28.10
2012,06,24,17,02,28.20
2012,06,24,17,03,28.20
2012,06,24,17,04,28.30
2012,06,24,17,05,28.30
2012,06,24,17,06,28.40
2012,06,24,17,07,28.40
2012,06,24,17,08,28.50
2012,06,24,17,09,28.60
2012,06,24,17,10,28.60
2012,06,24,17,11,28.70
2012,06,24,17,12,28.70
2012,06,24,17,13,28.70
2012,06,24,17,14,28.80
2012,06,24,17,15,28.80
2012,06,24,17,16,28.80
2012,06,24,17,17,28.80
2012,06,24,17,18,28.80
2012,06,24,17,19,28.80